(227474) = 2005 WZ167

Discovered at Kitt Peak on 2005-11-30 by Spacewatch.

Orbit

Orbit type: Main Belt

Note: WebGL enabled browser required.

epoch2024-03-31.0
epoch JD2460400.5
perihelion date2020-12-07.79565
perihelion JD2459191.29566
argument of perihelion (°)25.09495
ascending node (°)234.37494
inclination (°)1.53720
eccentricity0.0450234
perihelion distance (AU)2.5152814
Tisserand w.r.t. Jupiter3.4
ΔV w.r.t. Earth (km/sec)9.9
semimajor axis (AU)2.6338670
mean anomaly (°)278.81299
mean daily motion (°/day)0.23057560
aphelion distance (AU)2.752
period (years)4.27
P-vector [x]-0.18287630
P-vector [y]-0.90647487
P-vector [z]-0.38060421
Q-vector [x]0.98289408
Q-vector [y]-0.17716126
Q-vector [z]-0.05032998
absolute magnitude16.68
phase slope0.15
uncertainty0
referenceE2024-GI3
observations used448
oppositions17
arc length (days)10992
first opposition used1994
last opposition used2024
residual rms (arc-secs)0.74
perturbers coarse indicatorM-v
perturbers precise indicator003Ek
first observation date used1994-03-09.0
last observation date used2024-04-12.0
computer nameMPCLINUX
JD of orbit computation2456612.716818
perihelion JD uncertainty (days)5.2662E-04
argument of perihelion uncertainty (°)2.5512E-04
ascending node uncertainty (°)2.2683E-04
inclination uncertainty (°)5.4278E-06
eccentricity uncertainty 4.5404E-08
perihelion distance uncertainty (AU)1.2313E-07
Minimum Orbit Intersection Distances (in AU)
for orbit epoch: 2460400.5, reference: E2024-GI3
Mercury2.05004
Venus1.78907
Earth1.49988
Mars0.95116
Jupiter2.25219
Saturn6.29143
Uranus15.7923
Neptune27.1024

Observations

450 total observations over interval: 1994 03 09.25785 – 2024 03 17.454750
These data are available for download (format description).

Date (UT) J2000 RA J2000 Dec Magn Location Ref
1994 03 09.25785 10 37 55.47 +06 07 27.8   691 – Steward Observatory, Kitt Peak-Spacewatch MPS 369370
1994 03 09.31612 10 37 52.12 +06 07 47.8 20.1 V 691 – Steward Observatory, Kitt Peak-Spacewatch MPS 369370
1994 03 09.36262 10 37 50.17 +06 08 04.7   691 – Steward Observatory, Kitt Peak-Spacewatch MPS 369370
2000 09 25.32169 00 15 40.75 +03 47 02.5 20.7 V 691 – Steward Observatory, Kitt Peak-Spacewatch MPS 166142
2000 09 25.34447 00 15 39.55 +03 46 54.5 20.5 V 691 – Steward Observatory, Kitt Peak-Spacewatch MPS 166142
2000 09 25.36723 00 15 38.35 +03 46 46.7 20.5 V 691 – Steward Observatory, Kitt Peak-Spacewatch MPS 166142
2003 04 01.39911 14 12 46.74 -14 34 48.7 19.5 R 695 – Kitt Peak MPS 166142
2003 04 01.46894 14 12 43.90 -14 34 33.2   695 – Kitt Peak MPS 166142
2003 04 28.28299 13 51 03.87 -12 25 33.4 20.5 V 691 – Steward Observatory, Kitt Peak-Spacewatch MPS 166142
2003 04 28.31198 13 51 02.31 -12 25 24.2 20.7 V 691 – Steward Observatory, Kitt Peak-Spacewatch MPS 166142
2003 04 28.33908 13 51 00.92 -12 25 15.5 20.3 V 691 – Steward Observatory, Kitt Peak-Spacewatch MPS 166142
2004 09 15.12187 22 03 29.39 -09 23 56.0 21.1 V 691 – Steward Observatory, Kitt Peak-Spacewatch MPS 166142
2004 09 15.15509 22 03 28.09 -09 24 04.5 21.0 V 691 – Steward Observatory, Kitt Peak-Spacewatch MPS 166142
2004 09 15.18618 22 03 26.88 -09 24 13.0 21.0 V 691 – Steward Observatory, Kitt Peak-Spacewatch MPS 166142
2005 11 30.19533 05 16 16.09 +22 12 59.6 20.6 V 691 – Steward Observatory, Kitt Peak-Spacewatch MPS 154068
2005 11 30.21262 05 16 15.07 +22 12 57.7 20.6 V 691 – Steward Observatory, Kitt Peak-Spacewatch MPS 154068
2005 11 30.22998 05 16 14.05 +22 12 55.8 20.5 V 691 – Steward Observatory, Kitt Peak-Spacewatch MPS 154068
2005 12 04.19427 05 12 19.12 +22 06 26.0 20.6 V 691 – Steward Observatory, Kitt Peak-Spacewatch MPS 154068
2005 12 04.21178 05 12 18.07 +22 06 24.5 20.6 V 691 – Steward Observatory, Kitt Peak-Spacewatch MPS 154068
2005 12 04.22921 05 12 16.98 +22 06 22.7 20.6 V 691 – Steward Observatory, Kitt Peak-Spacewatch MPS 154068
2005 12 04.32693 05 12 10.90 +22 06 12.8 19.8 V G96 – Mt. Lemmon Survey MPS 156151
2005 12 04.33532 05 12 10.40 +22 06 11.8 19.9 V G96 – Mt. Lemmon Survey MPS 156151
2005 12 04.34367 05 12 09.90 +22 06 10.9 20.0 V G96 – Mt. Lemmon Survey MPS 156151
2005 12 04.35201 05 12 09.32 +22 06 09.8 20.0 V G96 – Mt. Lemmon Survey MPS 156151
2005 12 26.28461 04 50 50.24 +21 26 55.1 20.5 V G96 – Mt. Lemmon Survey MPS 166142
2005 12 26.29059 04 50 49.84 +21 26 54.7 20.4 V G96 – Mt. Lemmon Survey MPS 166142
2005 12 26.29671 04 50 49.52 +21 26 54.3 20.4 V G96 – Mt. Lemmon Survey MPS 166142
2005 12 26.30270 04 50 49.27 +21 26 53.7 19.8 V G96 – Mt. Lemmon Survey MPS 166142
2006 01 22.17022 04 36 46.00 +20 56 55.6 20.9 V G96 – Mt. Lemmon Survey MPS 166142
2006 01 22.17784 04 36 45.90 +20 56 55.6 20.8 V G96 – Mt. Lemmon Survey MPS 166142
2006 01 22.18545 04 36 45.86 +20 56 55.0 20.6 V G96 – Mt. Lemmon Survey MPS 166142
2006 01 22.19316 04 36 45.75 +20 56 55.1 20.6 V G96 – Mt. Lemmon Survey MPS 166142
2007 02 19.37247 12 16 16.53 -03 58 31.8 20.5 V G96 – Mt. Lemmon Survey MPS 200419
2007 02 19.37866 12 16 16.32 -03 58 31.4 19.9 V G96 – Mt. Lemmon Survey MPS 200419
2007 02 19.38490 12 16 16.17 -03 58 30.4 20.4 V G96 – Mt. Lemmon Survey MPS 200419
2007 02 19.39104 12 16 15.99 -03 58 29.0 21.3 V G96 – Mt. Lemmon Survey MPS 200419
2007 02 23.41008 12 14 16.81 -03 46 47.3 21.0 V 691 – Steward Observatory, Kitt Peak-Spacewatch MPS 201551
2007 02 23.42770 12 14 16.24 -03 46 43.5 21.0 V 691 – Steward Observatory, Kitt Peak-Spacewatch MPS 201551
2007 02 23.44533 12 14 15.60 -03 46 40.2 20.8 V 691 – Steward Observatory, Kitt Peak-Spacewatch MPS 201551
2007 03 11.37861 12 03 19.76 -02 37 09.7 19.9 V G96 – Mt. Lemmon Survey MPS 203128
2007 03 11.38598 12 03 19.36 -02 37 07.5 19.8 V G96 – Mt. Lemmon Survey MPS 203128
2007 03 11.39336 12 03 19.04 -02 37 05.9 19.7 V G96 – Mt. Lemmon Survey MPS 203128
2007 03 11.40073 12 03 18.68 -02 37 02.6 20.2 V G96 – Mt. Lemmon Survey MPS 203128
2007 03 20.31925 11 55 52.78 -01 46 48.7 19.8 V G96 – Mt. Lemmon Survey MPS 204633
2007 03 20.32619 11 55 52.39 -01 46 46.4 19.8 V G96 – Mt. Lemmon Survey MPS 204633
2007 03 20.33329 11 55 52.03 -01 46 44.0 19.9 V G96 – Mt. Lemmon Survey MPS 204633
2007 03 20.34027 11 55 51.67 -01 46 41.4 20.0 V G96 – Mt. Lemmon Survey MPS 204633
2007 04 11.26362 11 38 53.70 +00 16 14.4 20.2 V G96 – Mt. Lemmon Survey MPS 206203
2007 04 11.27089 11 38 53.41 +00 16 16.5 20.4 V G96 – Mt. Lemmon Survey MPS 206203
2007 04 11.27817 11 38 53.12 +00 16 18.5 20.3 V G96 – Mt. Lemmon Survey MPS 206203
2007 04 11.28551 11 38 52.83 +00 16 20.7 20.4 V G96 – Mt. Lemmon Survey MPS 206203
2007 04 20.18433 11 34 09.73 +00 54 26.3 20.3 V G96 – Mt. Lemmon Survey MPS 208108
2007 04 20.19089 11 34 09.55 +00 54 27.9 19.8 V G96 – Mt. Lemmon Survey MPS 208108
2007 04 20.19740 11 34 09.37 +00 54 29.1 20.4 V G96 – Mt. Lemmon Survey MPS 208108
2007 04 20.20391 11 34 09.19 +00 54 30.9 19.5 V G96 – Mt. Lemmon Survey MPS 208108
2009 11 08.25973 03 16 12.86 +18 21 59.4 21.0 V 703 – Catalina Sky Survey MPS 302198
2009 11 08.26704 03 16 12.28 +18 21 55.8 20.4 V 703 – Catalina Sky Survey MPS 302198
2009 11 08.27419 03 16 11.89 +18 21 55.7 19.9 V 703 – Catalina Sky Survey MPS 302198
2009 11 08.28150 03 16 11.46 +18 21 55.4 19.8 V 703 – Catalina Sky Survey MPS 302198
2009 11 11.14465 03 13 29.41 +18 09 49.6   691 – Steward Observatory, Kitt Peak-Spacewatch MPS 302198
2009 11 11.16186 03 13 28.41 +18 09 45.7   691 – Steward Observatory, Kitt Peak-Spacewatch MPS 302198
2009 11 11.17907 03 13 27.39 +18 09 41.1   691 – Steward Observatory, Kitt Peak-Spacewatch MPS 302198
2009 11 11.38293 03 13 15.52 +18 08 48.9 19.9 V G96 – Mt. Lemmon Survey MPS 302198
2009 11 11.39007 03 13 15.09 +18 08 47.1 20.0 V G96 – Mt. Lemmon Survey MPS 302198
2009 11 11.39755 03 13 14.62 +18 08 45.1 20.1 V G96 – Mt. Lemmon Survey MPS 302198
2009 11 11.40491 03 13 14.23 +18 08 43.4 20.2 V G96 – Mt. Lemmon Survey MPS 302198
2009 11 23.19595 03 02 20.83 +17 18 11.2 20.4 V G96 – Mt. Lemmon Survey MPS 304939
2009 11 23.20141 03 02 20.54 +17 18 09.9 20.0 V G96 – Mt. Lemmon Survey MPS 304939
2009 11 23.20685 03 02 20.29 +17 18 08.8 19.9 V G96 – Mt. Lemmon Survey MPS 304939
2009 11 23.21233 03 02 19.96 +17 18 07.1 20.2 V G96 – Mt. Lemmon Survey MPS 304939
2009 11 25.19586 03 00 37.58 +17 09 53.2 19.7 V G96 – Mt. Lemmon Survey MPS 304939
2009 11 25.20147 03 00 37.29 +17 09 51.8 18.9 V G96 – Mt. Lemmon Survey MPS 304939
2009 11 25.20706 03 00 36.97 +17 09 50.6 19.8 V G96 – Mt. Lemmon Survey MPS 304939
2009 11 25.21263 03 00 36.75 +17 09 48.9 19.6 V G96 – Mt. Lemmon Survey MPS 304939
2009 12 10.17073 02 50 00.42 +16 16 05.5 20.5 V G96 – Mt. Lemmon Survey MPS 308552
2009 12 10.17612 02 50 00.24 +16 16 04.7 20.7 V G96 – Mt. Lemmon Survey MPS 308552
2009 12 10.18162 02 50 00.06 +16 16 03.3 20.7 V G96 – Mt. Lemmon Survey MPS 308552
2009 12 10.19103 02 49 59.73 +16 16 02.2 20.6 V G96 – Mt. Lemmon Survey MPS 308552
2011 01 29.26249 10 20 44.86 +07 48 03.3 20.7 V 691 – Steward Observatory, Kitt Peak-Spacewatch MPS 369370
2011 01 29.28471 10 20 43.92 +07 48 07.7 20.7 V 691 – Steward Observatory, Kitt Peak-Spacewatch MPS 369370
2011 01 29.30693 10 20 43.00 +07 48 11.7 20.8 V 691 – Steward Observatory, Kitt Peak-Spacewatch MPS 369370
2011 02 01.31993 10 18 35.90 +07 58 54.1 20.7 V 291 – LPL/Spacewatch II MPS 369370
2011 02 01.32375 10 18 35.72 +07 58 54.9 20.6 V 291 – LPL/Spacewatch II MPS 369370
2011 02 01.32750 10 18 35.56 +07 58 55.7 20.6 V 291 – LPL/Spacewatch II MPS 369370
2011 02 04.45128 10 16 13.637 +08 11 08.93 20.9 w F51 – Pan-STARRS 1, Haleakala MPS 379944
2011 02 04.46557 10 16 12.940 +08 11 12.44 20.9 w F51 – Pan-STARRS 1, Haleakala MPS 379944
2011 02 04.49443 10 16 11.527 +08 11 19.47 20.8 w F51 – Pan-STARRS 1, Haleakala MPS 379944
2011 02 05.43936 10 15 26.814 +08 15 13.15 20.9 w F51 – Pan-STARRS 1, Haleakala MPS 379584
2011 02 05.45363 10 15 26.107 +08 15 16.63 20.9 w F51 – Pan-STARRS 1, Haleakala MPS 379584
2011 02 05.46807 10 15 25.390 +08 15 20.32 20.8 w F51 – Pan-STARRS 1, Haleakala MPS 379584
